TimeEST,TemperatureF,Dew PointF,Humidity,Sea Level PressureIn,VisibilityMPH,Wind Direction,Wind SpeedMPH,Gust SpeedMPH,PrecipitationIn,Events,Conditions,WindDirDegrees,DateUTC
12:06 AM,39.2,33.8,81,29.67,10.0,Calm,Calm,-,N/A,,Overcast,0,2013-02-28 05:06:00
12:27 AM,39.2,35.6,87,29.66,10.0,Calm,Calm,-,N/A,,Overcast,0,2013-02-28 05:27:00
1:06 AM,39.2,35.6,87,29.67,10.0,Calm,Calm,-,N/A,,Overcast,0,2013-02-28 06:06:00
1:27 AM,39.2,35.6,87,29.67,10.0,Calm,Calm,-,N/A,,Overcast,0,2013-02-28 06:27:00
1:45 AM,39.2,35.6,87,29.67,10.0,Calm,Calm,-,N/A,,Overcast,0,2013-02-28 06:45:00
2:06 AM,39.2,35.6,87,29.67,10.0,Calm,Calm,-,N/A,,Overcast,0,2013-02-28 07:06:00
2:27 AM,39.2,35.6,87,29.66,10.0,Calm,Calm,-,N/A,,Overcast,0,2013-02-28 07:27:00
2:45 AM,39.2,35.6,87,29.67,10.0,WNW,4.6,-,N/A,,Overcast,290,2013-02-28 07:45:00
3:06 AM,41.0,35.6,81,29.67,10.0,WNW,5.8,-,N/A,,Overcast,290,2013-02-28 08:06:00
3:27 AM,41.0,35.6,81,29.67,10.0,NW,4.6,-,N/A,,Overcast,310,2013-02-28 08:27:00
3:45 AM,41.0,35.6,81,29.67,10.0,Calm,Calm,-,N/A,,Overcast,0,2013-02-28 08:45:00
4:06 AM,39.2,37.4,93,29.66,7.0,Calm,Calm,-,N/A,,Overcast,0,2013-02-28 09:06:00
4:27 AM,39.2,37.4,93,29.66,10.0,Calm,Calm,-,N/A,,Overcast,0,2013-02-28 09:27:00
4:45 AM,39.2,37.4,93,29.67,7.0,Calm,Calm,-,N/A,,Overcast,0,2013-02-28 09:45:00
5:06 AM,37.4,37.4,100,29.66,10.0,Calm,Calm,-,N/A,,Overcast,0,2013-02-28 10:06:00
5:27 AM,37.4,37.4,100,29.67,7.0,Calm,Calm,-,N/A,,Overcast,0,2013-02-28 10:27:00
5:45 AM,37.4,37.4,100,29.68,5.0,Calm,Calm,-,N/A,,Overcast,0,2013-02-28 10:45:00
6:06 AM,37.4,35.6,93,29.68,10.0,WNW,4.6,-,N/A,,Overcast,300,2013-02-28 11:06:00
6:27 AM,37.4,35.6,93,29.68,10.0,Calm,Calm,-,N/A,,Overcast,0,2013-02-28 11:27:00
7:06 AM,37.4,33.8,87,29.69,10.0,West,4.6,-,N/A,,Overcast,270,2013-02-28 12:06:00
7:27 AM,37.4,32.0,81,29.69,10.0,West,4.6,-,N/A,,Overcast,280,2013-02-28 12:27:00
7:45 AM,37.4,32.0,81,29.70,10.0,West,4.6,-,N/A,,Scattered Clouds,280,2013-02-28 12:45:00
8:06 AM,37.4,32.0,81,29.70,10.0,West,5.8,-,N/A,,Clear,270,2013-02-28 13:06:00
8:27 AM,37.4,32.0,81,29.70,10.0,WNW,3.5,-,N/A,,Clear,290,2013-02-28 13:27:00
8:45 AM,41.0,30.2,65,29.70,10.0,West,6.9,-,N/A,,Clear,260,2013-02-28 13:45:00
9:06 AM,42.8,30.2,61,29.70,10.0,WNW,6.9,16.1,N/A,,Clear,290,2013-02-28 14:06:00
9:27 AM,44.6,28.4,53,29.69,10.0,West,9.2,-,N/A,,Clear,270,2013-02-28 14:27:00
9:48 AM,44.6,28.4,53,29.69,10.0,West,10.4,-,N/A,,Clear,270,2013-02-28 14:48:00
10:06 AM,46.4,28.4,50,29.68,10.0,WNW,11.5,-,N/A,,Clear,290,2013-02-28 15:06:00
10:27 AM,46.4,28.4,50,29.68,10.0,WNW,9.2,16.1,N/A,,Clear,300,2013-02-28 15:27:00
10:48 AM,46.4,28.4,50,29.68,10.0,West,12.7,17.3,N/A,,Clear,280,2013-02-28 15:48:00
11:06 AM,46.4,24.8,43,29.68,10.0,West,10.4,-,N/A,,Clear,280,2013-02-28 16:06:00
11:27 AM,46.4,23.0,40,29.67,10.0,NW,8.1,-,N/A,,Clear,320,2013-02-28 16:27:00
11:48 AM,48.2,24.8,40,29.67,10.0,WNW,13.8,21.9,N/A,,Clear,290,2013-02-28 16:48:00
12:06 PM,46.4,24.8,43,29.67,10.0,WNW,10.4,20.7,N/A,,Scattered Clouds,300,2013-02-28 17:06:00
12:27 PM,46.4,24.8,43,29.68,10.0,WNW,17.3,23.0,N/A,,Mostly Cloudy,290,2013-02-28 17:27:00
12:48 PM,44.6,24.8,46,29.67,10.0,West,11.5,-,N/A,,Overcast,260,2013-02-28 17:48:00
12:51 PM,44.6,24.8,46,29.67,10.0,West,13.8,-,N/A,,Overcast,270,2013-02-28 17:51:00
1:27 PM,44.6,26.6,49,29.66,10.0,WNW,11.5,20.7,N/A,,Unknown,300,2013-02-28 18:27:00
1:48 PM,44.6,28.4,53,29.66,10.0,West,15.0,19.6,N/A,,Mostly Cloudy,260,2013-02-28 18:48:00
2:06 PM,44.6,28.4,53,29.66,10.0,West,16.1,21.9,N/A,,Mostly Cloudy,280,2013-02-28 19:06:00
2:27 PM,44.6,30.2,57,29.67,10.0,WNW,12.7,21.9,N/A,,Mostly Cloudy,290,2013-02-28 19:27:00
3:06 PM,44.6,30.2,57,29.66,10.0,WNW,15.0,-,N/A,,Mostly Cloudy,290,2013-02-28 20:06:00
4:06 PM,44.6,28.4,53,29.66,10.0,West,8.1,-,N/A,,Overcast,280,2013-02-28 21:06:00
4:27 PM,44.6,28.4,53,29.66,10.0,West,11.5,-,N/A,,Overcast,270,2013-02-28 21:27:00
4:48 PM,42.8,26.6,53,29.66,10.0,West,9.2,-,N/A,,Scattered Clouds,280,2013-02-28 21:48:00
5:06 PM,42.8,26.6,53,29.67,10.0,West,10.4,-,N/A,,Mostly Cloudy,270,2013-02-28 22:06:00
5:27 PM,42.8,26.6,53,29.68,10.0,West,6.9,-,N/A,,Overcast,270,2013-02-28 22:27:00
5:48 PM,42.8,26.6,53,29.69,10.0,WNW,8.1,16.1,N/A,,Overcast,290,2013-02-28 22:48:00
6:09 PM,42.8,26.6,53,29.70,10.0,West,10.4,16.1,N/A,,Overcast,280,2013-02-28 23:09:00
6:27 PM,41.0,26.6,57,29.71,10.0,NW,12.7,18.4,N/A,,Overcast,310,2013-02-28 23:27:00
6:48 PM,41.0,28.4,61,29.72,10.0,WNW,13.8,19.6,N/A,,Overcast,300,2013-02-28 23:48:00
7:09 PM,41.0,28.4,61,29.73,10.0,West,10.4,-,N/A,,Overcast,280,2013-03-01 00:09:00
7:27 PM,39.2,28.4,65,29.73,10.0,WNW,5.8,-,N/A,,Overcast,290,2013-03-01 00:27:00
7:48 PM,39.2,30.2,70,29.73,10.0,West,6.9,-,N/A,,Overcast,280,2013-03-01 00:48:00
8:09 PM,39.2,30.2,70,29.73,10.0,West,4.6,-,N/A,,Mostly Cloudy,260,2013-03-01 01:09:00
8:27 PM,39.2,30.2,70,29.74,10.0,West,5.8,-,N/A,,Mostly Cloudy,270,2013-03-01 01:27:00
8:48 PM,39.2,28.4,65,29.74,10.0,West,5.8,-,N/A,,Mostly Cloudy,270,2013-03-01 01:48:00
9:09 PM,39.2,28.4,65,29.75,10.0,West,6.9,-,N/A,,Overcast,280,2013-03-01 02:09:00
9:27 PM,39.2,28.4,65,29.75,10.0,West,4.6,-,N/A,,Overcast,280,2013-03-01 02:27:00
9:48 PM,39.2,28.4,65,29.74,10.0,West,6.9,-,N/A,,Overcast,270,2013-03-01 02:48:00
10:09 PM,41.0,28.4,61,29.74,10.0,West,8.1,-,N/A,,Overcast,280,2013-03-01 03:09:00
10:27 PM,41.0,28.4,61,29.74,10.0,West,8.1,-,N/A,,Overcast,280,2013-03-01 03:27:00
10:48 PM,41.0,28.4,61,29.73,10.0,West,6.9,-,N/A,,Overcast,280,2013-03-01 03:48:00
11:27 PM,39.2,28.4,65,29.73,10.0,West,5.8,-,N/A,,Overcast,280,2013-03-01 04:27:00
11:48 PM,41.0,28.4,61,29.73,10.0,WNW,5.8,-,N/A,,Overcast,290,2013-03-01 04:48:00